Regional Weather Roundup
Issued by NWS

Home | Current Version | Previous Version | Graphics & Text | Print | Product List | Glossary Off
Versions: 1 2 3 4 5 6 7 8 9 10 11 12 13 14 15 16 17 18 19 20 21 22 23 24 25 26 27 28 29 30 31 32 33 34 35 36 37 38 39 40 41 42 43 44 45 46 47 48 49 50

000
ASUS43 KTOP 222059
RWRKS

WEATHER ROUNDUP FOR KANSAS
NATIONAL WEATHER SERVICE GOODLAND KS
400 PM CDT FRI AUG 22 2014

NOTE:  "FAIR" INDICATES FEW OR NO CLOUDS BELOW 12,000 FEET WITH NO
SIGNIFICANT WEATHER AND/OR OBSTRUCTIONS TO VISIBILITY.

KSZ001>006-013>018-027>032-041>047-222200-
NORTHWEST KANSAS

CITY           SKY/WX    TMP DP  RH WIND       PRES   REMARKS
GOODLAND       PTSUNNY   85  61  44 E16       30.00F
HAYS           SUNNY     97  66  36 E9        29.87F HX 100
HILL CITY      MOSUNNY   94  66  39 E9        29.91F HX  97
RUSSELL        SUNNY     98  64  32 S10G17    29.85F HX 100
$$

KSZ061>065-074>080-084>089-222200-
SOUTHWEST KANSAS

CITY           SKY/WX    TMP DP  RH WIND       PRES   REMARKS
DODGE CITY     MOSUNNY   99  60  27 SE13      29.90F HX  99
ELKHART          N/A     98  56  24 S17         N/A  HX  96
GARDEN CITY    MOSUNNY   96  58  27 SE20      29.89F HX  95
GREAT BEND     PTSUNNY   97  64  34 S17       29.86F HX  99
LIBERAL        MOSUNNY  100  57  23 S22       29.90F HX  99
$$

KSZ066>073-081>083-090>101-222200-
SOUTHEAST KANSAS

CITY           SKY/WX    TMP DP  RH WIND       PRES   REMARKS
CHANUTE        MOSUNNY   99  70  38 S14       29.91F HX 106
COFFEYVILLE    SUNNY     99  71  40 S15G22    29.92F HX 107
HUTCHINSON     MOSUNNY  103  66  30 S15       29.86F HX 107
NEWTON         MOSUNNY   99  66  34 S13G21    29.92F HX 102
PARSONS        SUNNY     99  71  40 S10G20    29.93F HX 107
WICHITA INTL   MOSUNNY  101  65  30 S18       29.86F HX 104
WICHITA JABRA  SUNNY     99  66  33 S15G28    29.87F HX 103
WINFIELD       SUNNY    100  68  35 S15G24    29.90F HX 105
$$

KSZ007>012-019>026-033>040-048>060-102>105-222200-
NORTHEAST KANSAS

CITY           SKY/WX    TMP DP  RH WIND       PRES   REMARKS
CONCORDIA      MOSUNNY   89  74  60 SE10      29.89F HX  98
EMPORIA        CLOUDY    83  72  69 S8        29.89F
LAWRENCE       PTSUNNY   95  71  45 SW15      29.90S HX 102
MANHATTAN      CLOUDY    93  69  45 S5        29.87F HX  98
OLATHE IND     PTSUNNY   94  73  50 S9        29.91F HX 103
OLATHE EXE     PTSUNNY   91  76  61 S7        29.90F HX 103
SALINA         PTSUNNY   96  70  42 SE15      29.86F HX 102
TOPEKA BILLARD PTSUNNY   91  68  46 S5        29.90F HX  95
TOPEKA FORBES  CLOUDY    89  68  49 S6        29.91F
$$


USA.gov is the U.S. government's official web portal to all federal, state and local government web resources and services.